Bad Axe, MI

8:13 PM EST on February 17, 2018 (GMT -0500)
Huron County Memorial

Weather History for KBAX - November, 2012

Change the Weather History Date:

Friday, November 2, 2012

  Actual Average (KP58) Record (KP58)
Temperature  
Mean Temperature 36 °F -  
Max Temperature 38 °F 50 °F 70 °F (2015)
Min Temperature 34 °F 38 °F 28 °F (2010)
Degree Days  
Heating Degree Days 29    
Moisture  
Dew Point 29 °F    
Average Humidity 72    
Maximum Humidity 83    
Minimum Humidity 61    
Precipitation  
Precipitation 0.00 in - - ()
Sea Level Pressure  
Sea Level Pressure 29.89 in    
Wind  
Wind Speed 12 mph (NW)    
Max Wind Speed 23 mph    
Max Gust Speed 30 mph    
Visibility 10 miles    
Events      
Averages and records for this station are not official NWS values.
T = Trace of Precipitation, MM = Missing Value Source: NWS Daily Summary

Daily Weather History Graph

Daily Weather History Graph

Search for Another Location

Airport or City:

Trip Planner

Search our weather history database for the weather conditions in past years. The results will help you decide how hot, cold, wet, or windy it might be!

Date:

Astronomy

Nov. 02, 2012 Rise Set
Actual Time 8:09 AM EDT 6:20 PM EDT
Civil Twilight 7:39 AM EDT 6:50 PM EDT
Nautical Twilight 7:05 AM EDT 7:24 PM EDT
Astronomical Twilight 6:32 AM EDT 7:58 PM EDT
Moon 9:02 PM EDT (11/2) 11:33 AM EDT (11/2)
Length of Visible Light 11h 10m
Length of Day
10h 10m
Waning Gibbous, 87% of the Moon is Illuminated
Nov 2
Waning Gibbous
Nov 6
Last Quarter
Nov 13
New
Nov 20
First Quarter
Nov 28
Full

Hourly Weather History & Observations

Time (EDT) Temp. Windchill Dew Point Humidity Pressure Visibility Wind Dir Wind Speed Gust Speed Precip Events Conditions
12:13 AM 37.6 °F 30.5 °F 32.4 °F 81% 29.73 in 10.0 mi WNW 10.4 mph - N/A   Overcast
12:33 AM 38.3 °F 31.4 °F 32.2 °F 79% 29.74 in 10.0 mi NW 10.4 mph 17.3 mph N/A   Overcast
12:53 AM 37.9 °F 30.5 °F 32.0 °F 79% 29.74 in 10.0 mi WNW 11.5 mph - N/A   Overcast
1:13 AM 37.9 °F 30.5 °F 32.0 °F 79% 29.74 in 10.0 mi NW 11.5 mph 17.3 mph N/A   Overcast
1:33 AM 37.8 °F 31.8 °F 32.0 °F 80% 29.75 in 10.0 mi NW 8.1 mph - N/A   Overcast
1:53 AM 37.8 °F 30.7 °F 32.0 °F 80% 29.75 in 10.0 mi WNW 10.4 mph - N/A   Overcast
2:13 AM 37.8 °F 31.3 °F 32.0 °F 80% 29.75 in 10.0 mi NW 9.2 mph - N/A   Overcast
2:33 AM 37.8 °F 30.7 °F 31.8 °F 79% 29.75 in 10.0 mi NW 10.4 mph 17.3 mph N/A   Overcast
2:53 AM 36.9 °F 29.1 °F 32.0 °F 83% 29.75 in 10.0 mi NNW 11.5 mph - N/A   Light Drizzle
3:13 AM 37.0 °F 29.3 °F 31.1 °F 79% 29.76 in 10.0 mi NNW 11.5 mph 19.6 mph N/A   Overcast
3:33 AM 37.0 °F 29.8 °F 30.9 °F 79% 29.77 in 10.0 mi NNW 10.4 mph 13.8 mph N/A   Overcast
3:53 AM 37.0 °F 29.8 °F 31.1 °F 79% 29.77 in 10.0 mi NNW 10.4 mph 17.3 mph N/A   Overcast
4:13 AM 36.7 °F 28.9 °F 30.2 °F 77% 29.77 in 10.0 mi NW 11.5 mph 18.4 mph N/A   Overcast
4:33 AM 36.5 °F 28.2 °F 29.8 °F 77% 29.77 in 10.0 mi NW 12.7 mph - N/A   Overcast
4:53 AM 36.3 °F 28.4 °F 29.7 °F 77% 29.78 in 10.0 mi NW 11.5 mph 16.1 mph N/A   Overcast
5:13 AM 36.1 °F 29.3 °F 28.4 °F 73% 29.78 in 10.0 mi NNW 9.2 mph 17.3 mph N/A   Overcast
5:33 AM 36.0 °F 28.0 °F 28.4 °F 74% 29.79 in 10.0 mi NW 11.5 mph - N/A   Overcast
5:53 AM 35.6 °F 27.1 °F 28.4 °F 75% 29.80 in 10.0 mi NW 12.7 mph - N/A   Overcast
6:14 AM 35.1 °F 26.4 °F 28.2 °F 76% 29.81 in 10.0 mi NW 12.7 mph 19.6 mph N/A   Overcast
6:33 AM 34.9 °F 26.2 °F 28.0 °F 76% 29.81 in 10.0 mi NNW 12.7 mph 19.6 mph N/A   Overcast
6:53 AM 34.7 °F 25.9 °F 27.5 °F 75% 29.82 in 10.0 mi NNW 12.7 mph 21.9 mph N/A   Overcast
7:14 AM 34.7 °F 23.7 °F 27.5 °F 75% 29.82 in 10.0 mi NNW 19.6 mph 23.0 mph N/A   Overcast
7:33 AM 34.7 °F 24.7 °F 27.3 °F 74% 29.82 in 10.0 mi NNW 16.1 mph 20.7 mph N/A   Overcast
7:53 AM 34.7 °F 24.7 °F 27.3 °F 74% 29.83 in 10.0 mi NNW 16.1 mph 21.9 mph N/A   Overcast
8:13 AM 34.7 °F 25.1 °F 27.5 °F 75% 29.84 in 10.0 mi NNW 15.0 mph 26.5 mph N/A   Overcast
8:33 AM 34.3 °F 24.2 °F 27.1 °F 75% 29.85 in 10.0 mi NNW 16.1 mph - N/A   Overcast
8:53 AM 34.2 °F 24.0 °F 27.0 °F 75% 29.86 in 10.0 mi NNW 16.1 mph 23.0 mph N/A   Overcast
9:14 AM 34.2 °F 24.0 °F 27.1 °F 75% 29.87 in 10.0 mi NNW 16.1 mph 19.6 mph N/A   Mostly Cloudy
9:33 AM 35.6 °F 26.2 °F 27.3 °F 72% 29.87 in 10.0 mi NNW 15.0 mph 25.3 mph N/A   Mostly Cloudy
9:53 AM 35.6 °F 25.2 °F 27.0 °F 71% 29.87 in 10.0 mi NNW 18.4 mph 26.5 mph N/A   Mostly Cloudy
10:14 AM 36.5 °F 25.7 °F 27.1 °F 69% 29.87 in 10.0 mi NNW 20.7 mph 28.8 mph N/A   Clear
10:33 AM 36.7 °F 26.3 °F 26.6 °F 67% 29.88 in 10.0 mi NNW 19.6 mph 28.8 mph N/A   Scattered Clouds
10:53 AM 37.0 °F 27.4 °F 26.6 °F 66% 29.89 in 10.0 mi NNW 17.3 mph 24.2 mph N/A   Mostly Cloudy
11:13 AM 37.6 °F 26.6 °F 26.6 °F 65% 29.90 in 10.0 mi NW 23.0 mph 29.9 mph N/A   Scattered Clouds
11:33 AM 38.1 °F 28.4 °F 27.5 °F 66% 29.90 in 10.0 mi NNW 18.4 mph 27.6 mph N/A   Scattered Clouds
11:53 AM 37.6 °F 27.7 °F 27.0 °F 66% 29.91 in 10.0 mi NNW 18.4 mph 24.2 mph N/A   Mostly Cloudy
12:13 PM 37.9 °F 27.3 °F 26.4 °F 63% 29.92 in 10.0 mi NW 21.9 mph 26.5 mph N/A   Mostly Cloudy
12:33 PM 37.6 °F 27.4 °F 27.1 °F 66% 29.92 in 10.0 mi NW 19.6 mph - N/A   Overcast
12:54 PM 36.9 °F 27.5 °F 25.9 °F 64% 29.93 in 10.0 mi NNW 16.1 mph 21.9 mph N/A   Overcast
1:13 PM 37.0 °F 28.5 °F 26.4 °F 65% 29.93 in 10.0 mi NNW 13.8 mph 18.4 mph N/A   Overcast
1:33 PM 37.2 °F 29.6 °F 26.4 °F 65% 29.93 in 10.0 mi North 11.5 mph - N/A   Overcast
1:54 PM 37.9 °F 29.2 °F 26.8 °F 64% 29.94 in 10.0 mi NNW 15.0 mph 19.6 mph N/A   Overcast
2:13 PM 37.2 °F 29.1 °F 27.3 °F 67% 29.94 in 10.0 mi NW 12.7 mph - N/A   Overcast
2:33 PM 37.4 °F 29.8 °F 26.6 °F 65% 29.93 in 10.0 mi NNW 11.5 mph - N/A   Overcast
2:54 PM 37.6 °F 31.0 °F 27.3 °F 66% 29.94 in 10.0 mi NNW 9.2 mph - N/A   Overcast
3:13 PM 37.9 °F 30.0 °F 26.6 °F 64% 29.94 in 10.0 mi NNW 12.7 mph - N/A   Overcast
3:33 PM 37.9 °F 28.9 °F 25.5 °F 61% 29.95 in 10.0 mi NNW 16.1 mph - N/A   Overcast
3:54 PM 38.5 °F 28.3 °F 25.9 °F 61% 29.95 in 10.0 mi NNW 20.7 mph 26.5 mph N/A   Overcast
4:13 PM 38.3 °F 29.7 °F 25.7 °F 61% 29.95 in 10.0 mi NNW 15.0 mph 21.9 mph N/A   Overcast
4:33 PM 37.9 °F 29.6 °F 26.2 °F 63% 29.96 in 10.0 mi NNW 13.8 mph - N/A   Overcast
4:51 PM 37.9 °F 30.0 °F 26.4 °F 63% 29.97 in 10.0 mi NNW 12.7 mph - N/A   Overcast
5:14 PM 37.9 °F 30.5 °F 26.6 °F 64% 29.97 in 10.0 mi NNW 11.5 mph 19.6 mph N/A   Overcast
5:33 PM 37.8 °F 30.2 °F 27.0 °F 65% 29.97 in 10.0 mi NNW 11.5 mph - N/A   Overcast
5:53 PM 37.9 °F 32.1 °F 27.5 °F 66% 29.98 in 10.0 mi NNW 8.1 mph - N/A   Overcast
6:14 PM 37.8 °F 31.8 °F 27.9 °F 67% 29.98 in 10.0 mi NNW 8.1 mph - N/A   Overcast
6:33 PM 37.6 °F 30.5 °F 27.5 °F 67% 29.98 in 10.0 mi NNW 10.4 mph - N/A   Overcast
6:54 PM 37.8 °F 31.8 °F 27.7 °F 67% 29.99 in 10.0 mi NNW 8.1 mph - N/A   Overcast
7:13 PM 37.6 °F 30.5 °F 28.2 °F 69% 30.00 in 10.0 mi NNW 10.4 mph - N/A   Overcast
7:33 PM 37.8 °F 31.3 °F 27.5 °F 67% 30.01 in 10.0 mi NNW 9.2 mph - N/A   Overcast
7:54 PM 37.6 °F 30.5 °F 27.5 °F 67% 30.01 in 10.0 mi NNW 10.4 mph - N/A   Overcast
8:13 PM 37.4 °F 30.8 °F 29.3 °F 73% 30.01 in 10.0 mi NW 9.2 mph - N/A   Overcast
8:33 PM 37.2 °F 30.6 °F 29.3 °F 73% 30.01 in 10.0 mi NW 9.2 mph - N/A   Overcast
8:54 PM 37.4 °F 29.8 °F 30.2 °F 75% 30.02 in 10.0 mi NW 11.5 mph 16.1 mph N/A   Overcast
9:13 PM 37.0 °F 29.8 °F 30.7 °F 78% 30.02 in 10.0 mi NW 10.4 mph 16.1 mph N/A   Overcast
9:34 PM 36.9 °F 30.7 °F 30.7 °F 79% 30.02 in 10.0 mi NW 8.1 mph - N/A   Overcast
9:54 PM 36.9 °F 29.6 °F 30.9 °F 79% 30.03 in 10.0 mi NW 10.4 mph - N/A   Overcast
10:13 PM 37.0 °F 29.8 °F 30.6 °F 77% 30.03 in 10.0 mi NNW 10.4 mph - N/A   Overcast
10:34 PM 37.0 °F 29.8 °F 30.4 °F 77% 30.03 in 10.0 mi NNW 10.4 mph - N/A   Overcast
10:54 PM 37.0 °F 29.3 °F 30.2 °F 76% 30.04 in 10.0 mi NW 11.5 mph - N/A   Overcast
11:34 PM 36.7 °F 29.4 °F 30.7 °F 79% 30.05 in 10.0 mi NNW 10.4 mph - N/A   Overcast
11:53 PM 37.0 °F 30.4 °F 30.9 °F 79% 30.05 in 10.0 mi NNW 9.2 mph - N/A   Overcast